Flag for Jamaica Weather past 2 weeks in Montego Bay, Jamaica

Now
82 °F

Passing clouds.


Feels Like: 89 °F
Forecast: 78 / 88 °F
Wind: 5 mph from Southeast

Location: Montego Bay / Sangster

Current Time: Sep 15, 2014 at 8:08:12 PM

Latest Report: Sep 15, 2014 at 7:00 PM


Visibility: N/A

Pressure: 29.98 "Hg

Humidity: 79%

Dew point: 75 °F

Location of Montego BayLocation

Historic Weather in Montego Bay — Graph

°F

Montego Bay temperature yesterday

Maximum temperature yesterday: 90 °F (at 1:00 PM)
Minimum temperature yesterday: 79 °F (at 1:00 AM)
Average temperature yesterday: 84 °F

Past Weeks' High & Low Weather Summary

 TemperatureHumidityPressure
High90 °F (Sep 1, 1:00 PM)100% (Sep 7, 7:00 PM)30.01 "Hg (Sep 7, 7:00 PM)
Low73 °F (Sep 7, 7:00 PM)66% (Sep 3, 9:00 AM)29.83 "Hg (Sep 6, 4:00 PM)
Average82 °F83%29.93 "Hg
* Reported Aug 31 7:00 PM — Sep 15 7:00 PM, Montego Bay, Weather by CustomWeather, © 2014

Note: Actual official high and low records may vary slightly from our data, if they occured in-between our weather recording intervals... More about our weather records

Advertising

Montego Bay weather history for previous 24 hours

 ConditionsComfort  
Time TempWeatherWind HumidityBarometerVisibility
7:00 PM
Sep 15
82 °FPassing clouds.5 mph79%29.98 "HgN/A
6:00 PM82 °FPassing clouds.5 mph74%29.98 "HgN/A
5:00 PM84 °FPartly sunny.8 mph79%29.95 "HgN/A
4:00 PM84 °FPartly sunny.7 mph84%29.95 "HgN/A
3:00 PM84 °FBroken clouds.5 mph84%29.95 "HgN/A
2:00 PM84 °FPartly sunny.12 mph84%29.98 "HgN/A
1:00 PM88 °FScattered clouds.14 mph75%29.98 "HgN/A
12:00 PM88 °FScattered clouds.18 mph75%30.01 "HgN/A
11:00 AM88 °FScattered clouds.17 mph75%30.01 "HgN/A
10:00 AM88 °FPartly sunny.14 mph75%30.01 "HgN/A
9:00 AM86 °FPassing clouds.13 mph79%30.01 "HgN/A
8:00 AM84 °FPassing clouds.3 mph84%30.01 "HgN/A
7:00 AM81 °FPassing clouds.9 mph89%30.01 "HgN/A
6:00 AM81 °FPassing clouds.5 mph84%29.98 "HgN/A
5:00 AM81 °FPassing clouds.5 mph84%29.98 "HgN/A
4:00 AM81 °FPassing clouds.8 mph84%29.98 "HgN/A
3:00 AM79 °FThundershowers. Passing clouds.6 mph89%29.98 "HgN/A
2:00 AM79 °FThundershowers. Passing clouds.6 mph89%29.98 "HgN/A
1:00 AM81 °FThundershowers. Passing clouds.2 mph89%29.98 "HgN/A
12:00 AM81 °FPassing clouds.6 mph79%30.01 "HgN/A
11:00 PM
Sep 14
81 °FPassing clouds.2 mph79%30.01 "HgN/A
10:00 PM82 °FPassing clouds.5 mph79%30.01 "HgN/A
9:00 PM82 °FThundershowers. Passing clouds.7 mph84%30.01 "HgN/A
8:00 PM82 °FThundershowers. Passing clouds.2 mph84%30.01 "HgN/A
Weather by CustomWeather, © 2014

See weather overviewHow to use our weather pages